TimeCDT,TemperatureF,Dew PointF,Humidity,Sea Level PressureIn,VisibilityMPH,Wind Direction,Wind SpeedMPH,Gust SpeedMPH,PrecipitationIn,Events,Conditions,WindDirDegrees,DateUTC
12:15 AM,64.4,50.0,59,30.03,10.0,Calm,Calm,-,N/A,,Clear,0,2012-11-02 05:15:00
12:35 AM,62.6,50.0,63,30.03,10.0,Calm,Calm,-,N/A,,Clear,0,2012-11-02 05:35:00
12:55 AM,62.6,51.8,68,30.03,10.0,South,4.6,-,N/A,,Clear,180,2012-11-02 05:55:00
1:15 AM,60.8,51.8,72,30.02,10.0,South,3.5,-,N/A,,Clear,170,2012-11-02 06:15:00
1:35 AM,62.6,51.8,68,30.02,10.0,SSE,3.5,-,N/A,,Clear,160,2012-11-02 06:35:00
1:55 AM,60.8,51.8,72,30.02,10.0,SSE,4.6,-,N/A,,Clear,160,2012-11-02 06:55:00
2:15 AM,60.8,51.8,72,30.02,10.0,South,3.5,-,N/A,,Clear,170,2012-11-02 07:15:00
2:35 AM,60.8,51.8,72,30.01,10.0,SSE,4.6,-,N/A,,Clear,160,2012-11-02 07:35:00
2:55 AM,60.8,51.8,72,30.01,10.0,SSE,5.8,-,N/A,,Clear,160,2012-11-02 07:55:00
3:15 AM,59.0,51.8,77,30.01,10.0,SSE,4.6,-,N/A,,Clear,160,2012-11-02 08:15:00
3:35 AM,59.0,51.8,77,30.01,10.0,SSE,6.9,-,N/A,,Clear,160,2012-11-02 08:35:00
3:55 AM,60.8,51.8,72,30.01,10.0,SSE,6.9,-,N/A,,Clear,160,2012-11-02 08:55:00
4:15 AM,60.8,53.6,77,30.00,10.0,SSE,5.8,-,N/A,,Clear,160,2012-11-02 09:15:00
4:35 AM,60.8,53.6,77,30.00,10.0,SSE,5.8,-,N/A,,Clear,160,2012-11-02 09:35:00
4:55 AM,60.8,53.6,77,30.01,10.0,South,4.6,-,N/A,,Clear,170,2012-11-02 09:55:00
5:15 AM,59.0,53.6,82,30.01,10.0,South,3.5,-,N/A,,Clear,190,2012-11-02 10:15:00
5:35 AM,60.8,53.6,77,30.01,10.0,South,3.5,-,N/A,,Clear,170,2012-11-02 10:35:00
5:55 AM,59.0,53.6,82,30.01,10.0,South,4.6,-,N/A,,Clear,180,2012-11-02 10:55:00
6:15 AM,59.0,53.6,82,30.01,10.0,South,5.8,-,N/A,,Clear,180,2012-11-02 11:15:00
6:35 AM,57.2,53.6,88,30.01,10.0,South,4.6,-,N/A,,Clear,180,2012-11-02 11:35:00
6:55 AM,57.2,53.6,88,30.02,10.0,South,5.8,-,N/A,,Clear,170,2012-11-02 11:55:00
7:15 AM,57.2,53.6,88,30.02,10.0,SSE,3.5,-,N/A,,Clear,150,2012-11-02 12:15:00
7:35 AM,57.2,53.6,88,30.02,10.0,SSE,3.5,-,N/A,,Clear,160,2012-11-02 12:35:00
7:55 AM,57.2,55.4,94,30.02,10.0,SSE,4.6,-,N/A,,Clear,160,2012-11-02 12:55:00
8:35 AM,59.0,55.4,88,30.03,10.0,South,4.6,-,N/A,,Clear,180,2012-11-02 13:35:00
8:55 AM,60.8,55.4,82,30.03,10.0,South,4.6,-,N/A,,Clear,170,2012-11-02 13:55:00
9:15 AM,62.6,57.2,82,30.04,10.0,South,6.9,-,N/A,,Clear,170,2012-11-02 14:15:00
9:35 AM,66.2,57.2,73,30.04,10.0,South,10.4,-,N/A,,Clear,180,2012-11-02 14:35:00
9:55 AM,68.0,57.2,68,30.04,10.0,SSE,9.2,-,N/A,,Clear,160,2012-11-02 14:55:00
10:15 AM,69.8,57.2,64,30.04,10.0,SSE,10.4,-,N/A,,Clear,160,2012-11-02 15:15:00
10:35 AM,71.6,57.2,60,30.04,10.0,South,10.4,-,N/A,,Clear,170,2012-11-02 15:35:00
10:55 AM,73.4,57.2,57,30.04,10.0,South,9.2,-,N/A,,Clear,180,2012-11-02 15:55:00
11:15 AM,75.2,57.2,53,30.04,10.0,South,13.8,-,N/A,,Clear,180,2012-11-02 16:15:00
11:35 AM,77.0,57.2,50,30.04,10.0,South,13.8,-,N/A,,Clear,180,2012-11-02 16:35:00
11:55 AM,78.8,57.2,47,30.04,10.0,South,11.5,-,N/A,,Clear,170,2012-11-02 16:55:00
12:15 PM,78.8,57.2,47,30.03,10.0,South,13.8,-,N/A,,Clear,180,2012-11-02 17:15:00
12:35 PM,78.8,57.2,47,30.02,10.0,South,11.5,-,N/A,,Clear,170,2012-11-02 17:35:00
12:55 PM,80.6,57.2,45,30.01,10.0,South,12.7,-,N/A,,Clear,180,2012-11-02 17:55:00
1:15 PM,80.6,57.2,45,30.00,10.0,SSE,12.7,-,N/A,,Clear,160,2012-11-02 18:15:00
1:35 PM,82.4,55.4,39,29.99,10.0,South,13.8,-,N/A,,Clear,190,2012-11-02 18:35:00
1:55 PM,82.4,55.4,39,29.98,10.0,South,10.4,-,N/A,,Clear,180,2012-11-02 18:55:00
2:15 PM,82.4,55.4,39,29.97,10.0,South,13.8,-,N/A,,Clear,190,2012-11-02 19:15:00
2:55 PM,82.4,55.4,39,29.96,10.0,South,10.4,-,N/A,,Partly Cloudy,170,2012-11-02 19:55:00
3:15 PM,84.2,55.4,37,29.95,10.0,South,12.7,-,N/A,,Partly Cloudy,190,2012-11-02 20:15:00
3:35 PM,84.2,53.6,35,29.94,10.0,SSE,6.9,-,N/A,,Partly Cloudy,160,2012-11-02 20:35:00
3:55 PM,84.2,51.8,33,29.94,10.0,South,9.2,-,N/A,,Partly Cloudy,180,2012-11-02 20:55:00
4:15 PM,84.2,51.8,33,29.93,10.0,South,11.5,-,N/A,,Partly Cloudy,180,2012-11-02 21:15:00
4:35 PM,84.2,51.8,33,29.93,10.0,South,10.4,-,N/A,,Clear,170,2012-11-02 21:35:00
4:55 PM,84.2,51.8,33,29.93,10.0,South,8.1,-,N/A,,Clear,190,2012-11-02 21:55:00
5:15 PM,82.4,50.0,32,29.93,10.0,South,10.4,-,N/A,,Clear,180,2012-11-02 22:15:00
5:35 PM,82.4,51.8,35,29.93,10.0,SSE,6.9,-,N/A,,Clear,160,2012-11-02 22:35:00
5:55 PM,80.6,53.6,39,29.93,10.0,SSE,9.2,-,N/A,,Clear,150,2012-11-02 22:55:00
6:15 PM,80.6,51.8,37,29.93,10.0,SSE,11.5,-,N/A,,Clear,150,2012-11-02 23:15:00
6:55 PM,75.2,53.6,47,29.94,10.0,SE,6.9,-,N/A,,Clear,140,2012-11-02 23:55:00
7:15 PM,75.2,53.6,47,29.95,10.0,SE,6.9,-,N/A,,Clear,140,2012-11-03 00:15:00
7:35 PM,73.4,53.6,50,29.95,10.0,SE,6.9,-,N/A,,Clear,140,2012-11-03 00:35:00
7:55 PM,71.6,53.6,53,29.96,10.0,SE,6.9,-,N/A,,Clear,140,2012-11-03 00:55:00
8:15 PM,71.6,53.6,53,29.96,10.0,SE,6.9,-,N/A,,Clear,140,2012-11-03 01:15:00
8:35 PM,69.8,53.6,56,29.97,10.0,SE,6.9,-,N/A,,Clear,140,2012-11-03 01:35:00
9:15 PM,68.0,53.6,60,29.98,10.0,SE,6.9,-,N/A,,Clear,140,2012-11-03 02:15:00
9:35 PM,68.0,53.6,60,29.98,10.0,SSE,6.9,-,N/A,,Clear,150,2012-11-03 02:35:00
9:55 PM,68.0,53.6,60,29.99,10.0,SSE,6.9,-,N/A,,Clear,150,2012-11-03 02:55:00
10:55 PM,66.2,55.4,68,30.00,10.0,SSE,5.8,-,N/A,,Clear,150,2012-11-03 03:55:00
11:15 PM,66.2,55.4,68,30.00,10.0,SSE,4.6,-,N/A,,Clear,150,2012-11-03 04:15:00
11:35 PM,64.4,55.4,73,30.00,10.0,SE,4.6,-,N/A,,Clear,140,2012-11-03 04:35:00
11:55 PM,64.4,55.4,73,30.00,10.0,SE,4.6,-,N/A,,Clear,140,2012-11-03 04:55:00